User: anonymous   Login
Location: Gollag?dem
(16.8053°N, 80.8024°E)
Time: 06:52:10
(UTC+00:00)
Language:

Cosmos 1484 Rocket - Orbit

View from above orbital plane
View from above orbital plane
View from above satellite
View from above satellite

Ground track
Ground track

The orbit data is extracted from the following two-line orbital elements,

1 14208U 83075B   20295.25396771 +.00000299 +00000-0 +21341-4 0  9991
2 14208 097.4106 274.8819 0037313 232.5464 127.2370 15.11198016031735
Epoch (UTC): 21 October 2020 06:05:42
Eccentricity: 0.0037313
inclination: 97.4106°
perigee height: 507 km
apogee height: 558 km
right ascension of ascending node: 274.8819°
argument of perigee: 232.5464°
revolutions per day: 15.11198016
mean anomaly at epoch: 127.2370°
orbit number at epoch: 3173

The dashed part of the orbit path shows where the satellite is in the earth's shadow,  

DLR